This is the latest recevied weather packets stored in our database for station/object iz1wiy-2. If no packets are shown the sender has not sent any weather packets the latest 10 day(s).
| Time | Temp. | Humidity | Pressure | Rain* | Wind** | Luminosity | Snow |
|---|---|---|---|---|---|---|---|
| 1778041803 | 17.78° C | 86% | 1008.2 hPa | 1.27 mm | - | - | - |
| 1778041503 | 17.78° C | 86% | 1008 hPa | 1.27 mm | - | - | - |
| 1778041203 | 17.78° C | 86% | 1008.1 hPa | 1.27 mm | - | - | - |
| 1778040903 | 17.78° C | 86% | 1008 hPa | 1.27 mm | - | - | - |
| 1778040603 | 17.78° C | 86% | 1008.1 hPa | 1.27 mm | - | - | - |
| 1778040304 | 17.78° C | 86% | 1008.2 hPa | 1.27 mm | - | - | - |
| 1778039703 | 17.22° C | 86% | 1008.4 hPa | 0.76 mm | - | - | - |
| 1778039403 | 17.78° C | 86% | 1008.4 hPa | 0.76 mm | - | - | - |
| 1778039103 | 17.78° C | 86% | 1008.5 hPa | 0.76 mm | - | - | - |
| 1778038803 | 17.78° C | 85% | 1008.5 hPa | 0 mm | - | - | - |
| 1778038503 | 17.78° C | 86% | 1008.5 hPa | 0 mm | - | - | - |
| 1778038203 | 17.78° C | 86% | 1008.6 hPa | 0 mm | - | - | - |
| 1778037903 | 17.78° C | 86% | 1008.4 hPa | 0 mm | - | - | - |
| 1778037604 | 17.78° C | 86% | 1008.5 hPa | 0 mm | - | - | - |
| 1778037303 | 17.78° C | 86% | 1008.6 hPa | 0 mm | - | - | - |
| 1778037003 | 17.78° C | 86% | 1008.7 hPa | 0 mm | - | - | - |
| 1778036703 | 17.78° C | 86% | 1008.6 hPa | 0 mm | - | - | - |
| 1778036404 | 17.78° C | 86% | 1008.6 hPa | 0.25 mm | - | - | - |
| 1778036103 | 17.22° C | 86% | 1008.7 hPa | 0.25 mm | - | - | - |
| 1778035804 | 17.22° C | 86% | 1008.4 hPa | 0.51 mm | - | - | - |
| 1778035503 | 17.22° C | 86% | 1008.5 hPa | 1.27 mm | - | - | - |
| 1778035203 | 16.67° C | 86% | 1008.5 hPa | 1.27 mm | - | - | - |
| 1778034903 | 16.11° C | 86% | 1008.6 hPa | 2.03 mm | - | - | - |
| 1778034603 | 16.11° C | 85% | 1008.3 hPa | 2.29 mm | - | - | - |
| 1778034303 | 16.11° C | 85% | 1008.5 hPa | 2.29 mm | - | - | - |
* Rain latest hour (hover to see other rain measurements)
** Current wind speed in m/s (hover to see current wind gust speed)